TimeCST,TemperatureF,Dew PointF,Humidity,Sea Level PressureIn,VisibilityMPH,Wind Direction,Wind SpeedMPH,Gust SpeedMPH,PrecipitationIn,Events,Conditions,WindDirDegrees,DateUTC
12:15 AM,51.4,46.9,85,30.18,7.0,North,3.5,-,N/A,,Clear,350,2012-11-21 06:15:00
12:35 AM,50.9,47.3,87,30.18,7.0,NNW,3.5,-,N/A,,Clear,340,2012-11-21 06:35:00
12:55 AM,49.6,46.4,89,30.18,7.0,Calm,Calm,-,N/A,,Scattered Clouds,0,2012-11-21 06:55:00
1:15 AM,46.2,45.0,95,30.18,4.0,Calm,Calm,-,N/A,,Scattered Clouds,0,2012-11-21 07:15:00
1:35 AM,45.0,44.2,97,30.19,3.0,Calm,Calm,-,N/A,,Clear,0,2012-11-21 07:35:00
1:55 AM,46.6,45.9,97,30.19,4.0,NW,3.5,-,N/A,,Clear,320,2012-11-21 07:55:00
2:15 AM,47.1,46.0,96,30.20,4.0,NW,3.5,-,N/A,,Clear,320,2012-11-21 08:15:00
2:35 AM,46.4,45.5,97,30.20,4.0,Calm,Calm,-,N/A,,Clear,0,2012-11-21 08:35:00
2:55 AM,46.6,45.9,97,30.20,3.0,Calm,Calm,-,N/A,,Clear,0,2012-11-21 08:55:00
3:15 AM,44.8,44.1,97,30.20,2.5,Calm,Calm,-,N/A,,Clear,0,2012-11-21 09:15:00
3:35 AM,43.7,43.3,99,30.21,1.5,Calm,Calm,-,N/A,,Mist,0,2012-11-21 09:35:00
3:55 AM,43.7,43.5,99,30.22,1.8,NNW,3.5,-,N/A,,Mist,330,2012-11-21 09:55:00
4:15 AM,44.4,44.2,99,30.22,2.0,NNW,3.5,-,N/A,,Clear,330,2012-11-21 10:15:00
4:35 AM,46.8,46.4,99,30.22,3.0,NW,5.8,-,N/A,,Clear,320,2012-11-21 10:35:00
4:55 AM,46.6,46.2,99,30.23,2.5,NW,4.6,-,N/A,,Clear,320,2012-11-21 10:55:00
5:15 AM,45.5,44.8,97,30.23,2.5,NNW,4.6,-,N/A,,Clear,330,2012-11-21 11:15:00
5:35 AM,43.9,43.3,98,30.23,1.2,Calm,Calm,-,N/A,,Mist,0,2012-11-21 11:35:00
5:55 AM,43.7,43.3,99,30.23,1.2,Calm,Calm,-,N/A,,Mist,0,2012-11-21 11:55:00
6:15 AM,40.3,40.1,99,30.24,-9999.0,Calm,Calm,-,N/A,,Mostly Cloudy,0,2012-11-21 12:15:00
6:35 AM,40.5,40.5,100,30.24,0.2,Calm,Calm,-,N/A,Fog,Fog,0,2012-11-21 12:35:00
6:55 AM,39.4,39.4,100,30.25,0.2,Calm,Calm,-,N/A,Fog,Fog,0,2012-11-21 12:55:00
7:15 AM,38.8,38.8,100,30.25,0.2,Calm,Calm,-,N/A,Rain,Light Rain,0,2012-11-21 13:15:00
7:35 AM,39.2,39.2,100,30.25,0.2,Calm,Calm,-,N/A,Fog,Fog,0,2012-11-21 13:35:00
7:55 AM,41.2,41.2,100,30.26,0.2,Calm,Calm,-,N/A,Fog,Fog,0,2012-11-21 13:55:00
8:15 AM,45.9,45.7,99,30.26,0.8,Calm,Calm,-,N/A,,Mostly Cloudy,0,2012-11-21 14:15:00
8:35 AM,48.7,48.4,99,30.27,1.5,NNW,3.5,-,N/A,,Mist,340,2012-11-21 14:35:00
8:55 AM,49.8,49.5,99,30.28,2.0,North,3.5,-,N/A,,Clear,350,2012-11-21 14:55:00
9:15 AM,51.1,50.5,98,30.28,3.0,North,3.5,-,N/A,,Clear,350,2012-11-21 15:15:00
9:35 AM,52.0,50.5,95,30.29,4.0,Calm,Calm,-,N/A,,Clear,0,2012-11-21 15:35:00
9:55 AM,54.0,51.3,91,30.29,5.0,Calm,Calm,-,N/A,,Clear,0,2012-11-21 15:55:00
10:15 AM,56.3,49.6,78,30.28,5.0,Calm,Calm,-,N/A,,Haze,0,2012-11-21 16:15:00
10:35 AM,57.4,48.7,73,30.28,5.0,Calm,Calm,-,N/A,,Haze,0,2012-11-21 16:35:00
10:55 AM,58.6,48.6,69,30.28,7.0,Calm,Calm,-,N/A,,Clear,0,2012-11-21 16:55:00
11:15 AM,59.7,48.4,66,30.27,7.0,Calm,Calm,-,N/A,,Clear,0,2012-11-21 17:15:00
11:35 AM,60.6,48.0,63,30.26,7.0,Calm,Calm,-,N/A,,Clear,0,2012-11-21 17:35:00
11:55 AM,60.8,48.0,63,30.26,7.0,Calm,Calm,-,N/A,,Clear,0,2012-11-21 17:55:00
12:15 PM,61.2,48.4,63,30.25,7.0,Calm,Calm,-,N/A,,Clear,0,2012-11-21 18:15:00
12:35 PM,61.9,48.6,62,30.24,7.0,North,3.5,-,N/A,,Clear,350,2012-11-21 18:35:00
12:55 PM,62.1,48.4,61,30.24,7.0,Calm,Calm,-,N/A,,Clear,0,2012-11-21 18:55:00
1:15 PM,62.1,48.2,60,30.23,7.0,Calm,Calm,-,N/A,,Clear,0,2012-11-21 19:15:00
1:35 PM,62.6,48.2,59,30.23,10.0,Calm,Calm,-,N/A,,Clear,0,2012-11-21 19:35:00
1:55 PM,63.5,48.9,59,30.22,7.0,Calm,Calm,-,N/A,,Clear,0,2012-11-21 19:55:00
2:15 PM,63.3,48.9,59,30.22,10.0,Calm,Calm,-,N/A,,Clear,0,2012-11-21 20:15:00
2:35 PM,63.3,48.6,59,30.22,7.0,Calm,Calm,-,N/A,,Clear,0,2012-11-21 20:35:00
2:55 PM,63.3,48.7,59,30.22,10.0,Calm,Calm,-,N/A,,Clear,0,2012-11-21 20:55:00
3:15 PM,62.8,48.2,59,30.22,10.0,Calm,Calm,-,N/A,,Clear,0,2012-11-21 21:15:00
3:35 PM,62.2,48.2,60,30.21,10.0,Calm,Calm,-,N/A,,Clear,0,2012-11-21 21:35:00
3:55 PM,61.2,48.4,63,30.21,10.0,Calm,Calm,-,N/A,,Clear,0,2012-11-21 21:55:00
4:15 PM,58.5,48.2,69,30.21,10.0,Calm,Calm,-,N/A,,Clear,0,2012-11-21 22:15:00
4:35 PM,56.5,48.0,73,30.21,7.0,Calm,Calm,-,N/A,,Clear,0,2012-11-21 22:35:00
5:15 PM,53.6,48.2,82,30.21,7.0,Calm,Calm,-,N/A,,Clear,0,2012-11-21 23:15:00
5:33 PM,48.2,46.4,93,30.21,7.0,Calm,Calm,-,N/A,,Clear,0,2012-11-21 23:33:00
5:55 PM,47.7,45.7,93,30.21,7.0,Calm,Calm,-,N/A,,Clear,0,2012-11-21 23:55:00
6:15 PM,49.3,47.1,92,30.21,5.0,SSE,3.5,-,N/A,,Clear,150,2012-11-22 00:15:00
6:35 PM,48.0,46.4,94,30.20,5.0,South,3.5,-,N/A,,Clear,170,2012-11-22 00:35:00
6:55 PM,46.8,45.7,96,30.20,5.0,Calm,Calm,-,N/A,,Clear,0,2012-11-22 00:55:00
7:15 PM,46.4,45.5,97,30.20,3.0,Calm,Calm,-,N/A,,Clear,0,2012-11-22 01:15:00
7:35 PM,45.3,44.6,97,30.20,4.0,Calm,Calm,-,N/A,,Clear,0,2012-11-22 01:35:00
7:55 PM,46.2,45.1,96,30.20,5.0,Calm,Calm,-,N/A,,Clear,0,2012-11-22 01:55:00
8:15 PM,45.0,43.9,96,30.20,4.0,Calm,Calm,-,N/A,,Clear,0,2012-11-22 02:15:00
8:35 PM,46.6,45.5,96,30.20,4.0,Calm,Calm,-,N/A,,Clear,0,2012-11-22 02:35:00
8:55 PM,43.9,42.6,95,30.20,2.5,Calm,Calm,-,N/A,,Clear,0,2012-11-22 02:55:00
9:15 PM,43.9,43.3,98,30.20,1.8,Calm,Calm,-,N/A,,Mist,0,2012-11-22 03:15:00
9:35 PM,41.9,41.2,97,30.21,0.2,Calm,Calm,-,N/A,Fog,Fog,0,2012-11-22 03:35:00
9:55 PM,44.2,44.1,99,30.20,-9999.0,Calm,Calm,-,N/A,,Unknown,0,2012-11-22 03:55:00
10:15 PM,41.2,41.2,100,30.20,0.2,Calm,Calm,-,N/A,Fog,Fog,0,2012-11-22 04:15:00
10:35 PM,40.6,40.5,99,30.20,0.2,Calm,Calm,-,N/A,Fog,Fog,0,2012-11-22 04:35:00
10:55 PM,38.8,38.8,100,30.20,0.2,Calm,Calm,-,N/A,Fog,Fog,0,2012-11-22 04:55:00
11:15 PM,38.8,38.8,100,30.20,0.2,Calm,Calm,-,N/A,Fog,Fog,0,2012-11-22 05:15:00
11:35 PM,38.8,38.8,100,30.20,0.5,Calm,Calm,-,N/A,,Light Drizzle,0,2012-11-22 05:35:00
11:55 PM,39.6,39.6,100,30.19,0.2,Calm,Calm,-,N/A,Rain,Light Rain,0,2012-11-22 05:55:00